Погода в Донском

Россия / Тульская область     53°58′04″N   38°20′13″E
темп.,
°C
ветер,
м/с
пор.,
м/с
влажн.,
%
обл.,
%
осадки,
мм/ч
давл.,
гПа
погр.,
м
6 марта, сб
сб600:00−10зсз228827 0.0 101521
03:00−12з118827 0.0 101721
06:00−11з129041 0.0 101621
09:00−9с129571 0.3 1017110
12:00−6ссз3491100 1.1 1017452
15:00−5сз358494 1.2 1016735
18:00−9з348822 0.0 101752
21:00−11з459111 0.0 101776
7 марта, вс
вс700:00−12зюз44910 0.0 101665
03:00−12юз510920 0.0 1014166
06:00−10юз7148833 0.0 1011330
09:00−7юз9178367 0.0 1007618
12:00−5юз111891100 0.1 10011026
15:00−3юз122093100 1.7 9961331
18:00−6з101775100 1.3 9971202
21:00−8з7187759 1.3 1001561
8 марта, пн
пн800:00−9зюз714810 0.0 1000324
03:00−9юз8168533 0.0 998486
06:00−6з91493100 0.6 996997
09:00−10з8148985 0.7 999575
12:00−6зсз6988100 0.1 1002851
15:00−7зсз7117968 0.1 10041084
18:00−8зсз6128794 0.1 1005710
21:00−8зсз6129196 0.1 1008553
9 марта, вт
вт900:00−12зсз4109491 0.0 1010224
03:00−13зсз489684 0.1 1012182
06:00−15сз479773 0.0 1014141
09:00−15сз589462 0.0 1016334
12:00−12сз579093 0.0 1017523
15:00−11зсз578896 0.1 1018667
18:00−14зсз469298 0.0 1019115
21:00−16з349279 0.1 102056
10 марта, ср
ср1000:00−12юз499598 0.1 1018242
03:00−7з8149399 0.9 1017764
06:00−7зсз71392100 0.2 1017680
09:00−9ссз2595100 0.8 1017283
12:00−7зсз1494100 0.8 1017376
15:00−5з4888100 1.6 1016823
18:00−6з488797 0.1 1016228
21:00−10зюз458960 0.1 101677